When you browse on this site, cookies collect data to enhance your experience and personalize the content and advertising you see.
Visit our Privacy Policy to learn more. By continuing to use the site, you agree to this use of cookies and data.

Hourly Weather Brisbane

Today, 15 August, Saturday

Time Temperature Precipitation Wind Pressure Humidity
00:00 +18°C° 0.4 mm 3 mps 758 mmHg 87%
01:00 +18°C° 0.4 mm 3 mps 758 mmHg 89%
02:00 +18°C° 0.9 mm 3 mps 758 mmHg 89%
03:00 +18°C° 0.9 mm 3 mps 758 mmHg 89%
04:00 +18°C° 0 mm 2 mps 758 mmHg 89%
05:00 +19°C° 1.2 mm 1 mps 758 mmHg 90%
06:00 +19°C° 1.2 mm 1 mps 758 mmHg 90%
07:00 +17°C° 1.2 mm 0 mps 758 mmHg 91%
08:00 +19°C° 1 mm 1 mps 758 mmHg 88%
09:00 +19°C° 1 mm 3 mps 758 mmHg 85%
10:00 +20°C° 0 mm 3 mps 758 mmHg 81%
11:00 +20°C° 0.7 mm 4 mps 757 mmHg 78%
12:00 +20°C° 0.7 mm 4 mps 757 mmHg 74%
13:00 +21°C° 0.7 mm 5 mps 756 mmHg 71%
14:00 +21°C° 0.1 mm 4 mps 756 mmHg 67%
15:00 +21°C° 0.1 mm 4 mps 755 mmHg 63%
16:00 +24°C° 0 mm 2 mps 755 mmHg 55%
17:00 +21°C° 0 mm 2 mps 755 mmHg 58%
18:00 +20°C° 0 mm 3 mps 756 mmHg 61%
19:00 +18°C° 0 mm 3 mps 756 mmHg 64%
20:00 +17°C° 0 mm 3 mps 757 mmHg 64%
21:00 +17°C° 0 mm 4 mps 757 mmHg 64%
22:00 +15°C° 0 mm 4 mps 757 mmHg 68%
23:00 +14°C° 0 mm 3 mps 757 mmHg 69%

Tomorrow, 16 August, Sunday

Time Temperature Precipitation Wind Pressure Humidity
00:00 +14°C° 0 mm 3 mps 757 mmHg 71%
01:00 +13°C° 0 mm 3 mps 757 mmHg 72%
02:00 +13°C° 0 mm 3 mps 757 mmHg 73%
03:00 +13°C° 0 mm 3 mps 757 mmHg 74%
04:00 +12°C° 0 mm 3 mps 757 mmHg 76%
05:00 +12°C° 0 mm 3 mps 757 mmHg 76%
06:00 +12°C° 0 mm 3 mps 758 mmHg 76%
07:00 +12°C° 0 mm 3 mps 758 mmHg 77%
08:00 +14°C° 0 mm 3 mps 758 mmHg 67%
09:00 +17°C° 0 mm 4 mps 758 mmHg 57%
10:00 +19°C° 0 mm 4 mps 758 mmHg 48%
11:00 +20°C° 0 mm 5 mps 757 mmHg 44%
12:00 +21°C° 0 mm 5 mps 757 mmHg 41%
13:00 +22°C° 0 mm 5 mps 756 mmHg 37%
14:00 +22°C° 0 mm 5 mps 756 mmHg 38%
15:00 +22°C° 0 mm 5 mps 755 mmHg 40%
16:00 +21°C° 0 mm 4 mps 755 mmHg 41%
17:00 +20°C° 0 mm 4 mps 756 mmHg 45%
18:00 +18°C° 0 mm 4 mps 756 mmHg 48%
19:00 +16°C° 0 mm 5 mps 757 mmHg 51%
20:00 +15°C° 0 mm 4 mps 757 mmHg 55%
21:00 +14°C° 0 mm 4 mps 758 mmHg 58%
22:00 +13°C° 0 mm 4 mps 758 mmHg 61%
23:00 +13°C° 0 mm 4 mps 758 mmHg 63%

Day after tomorrow, 17 August, Monday

Time Temperature Precipitation Wind Pressure Humidity
00:00 +13°C° 0 mm 4 mps 758 mmHg 65%
01:00 +13°C° 0 mm 4 mps 757 mmHg 66%
02:00 +12°C° 0 mm 4 mps 757 mmHg 68%
03:00 +12°C° 0 mm 4 mps 757 mmHg 69%
04:00 +12°C° 0 mm 4 mps 758 mmHg 71%
05:00 +11°C° 0 mm 4 mps 758 mmHg 72%
06:00 +11°C° 0 mm 4 mps 758 mmHg 73%
07:00 +11°C° 0 mm 4 mps 759 mmHg 74%
08:00 +13°C° 0 mm 4 mps 759 mmHg 64%
09:00 +15°C° 0 mm 4 mps 759 mmHg 54%
10:00 +18°C° 0 mm 4 mps 759 mmHg 44%
11:00 +19°C° 0 mm 4 mps 758 mmHg 40%
12:00 +20°C° 0 mm 3 mps 757 mmHg 35%
13:00 +22°C° 0 mm 3 mps 756 mmHg 31%
14:00 +22°C° 0 mm 3 mps 756 mmHg 33%
15:00 +21°C° 0 mm 3 mps 756 mmHg 34%
16:00 +21°C° 0 mm 3 mps 756 mmHg 36%
17:00 +19°C° 0 mm 3 mps 757 mmHg 41%
18:00 +18°C° 0 mm 3 mps 757 mmHg 46%
19:00 +15°C° 0 mm 4 mps 757 mmHg 51%
20:00 +14°C° 0 mm 4 mps 758 mmHg 54%
21:00 +14°C° 0 mm 4 mps 758 mmHg 57%
22:00 +13°C° 0 mm 4 mps 759 mmHg 60%
23:00 +12°C° 0 mm 3 mps 758 mmHg 63%

18 August, Tuesday

Time Temperature Precipitation Wind Pressure Humidity
00:00 +12°C° 0 mm 3 mps 758 mmHg 65%
01:00 +11°C° 0 mm 3 mps 757 mmHg 68%
02:00 +11°C° 0 mm 3 mps 757 mmHg 70%
03:00 +10°C° 0 mm 2 mps 757 mmHg 72%
04:00 +10°C° 0 mm 2 mps 757 mmHg 74%
05:00 +10°C° 0 mm 2 mps 757 mmHg 74%
06:00 +10°C° 0 mm 2 mps 758 mmHg 73%
07:00 +10°C° 0 mm 2 mps 758 mmHg 73%
08:00 +14°C° 0 mm 2 mps 758 mmHg 62%
09:00 +17°C° 0 mm 2 mps 758 mmHg 52%
10:00 +19°C° 0 mm 2 mps 758 mmHg 41%
11:00 +21°C° 0 mm 2 mps 757 mmHg 38%
12:00 +23°C° 0 mm 2 mps 756 mmHg 34%
13:00 +25°C° 0 mm 2 mps 755 mmHg 31%
14:00 +25°C° 0 mm 2 mps 755 mmHg 33%
15:00 +25°C° 0 mm 2 mps 755 mmHg 36%
16:00 +25°C° 0 mm 3 mps 755 mmHg 38%
17:00 +23°C° 0 mm 2 mps 755 mmHg 45%
18:00 +20°C° 0 mm 2 mps 755 mmHg 52%
19:00 +18°C° 0 mm 2 mps 755 mmHg 59%
20:00 +17°C° 0 mm 2 mps 756 mmHg 61%
21:00 +17°C° 0 mm 2 mps 756 mmHg 62%
22:00 +17°C° 0 mm 2 mps 756 mmHg 63%
23:00 +17°C° 0 mm 2 mps 755 mmHg 62%

19 August, Wednesday

Time Temperature Precipitation Wind Pressure Humidity
00:00 +17°C° 0 mm 2 mps 754 mmHg 61%
01:00 +17°C° 0 mm 2 mps 754 mmHg 60%
02:00 +16°C° 0 mm 2 mps 754 mmHg 61%
03:00 +16°C° 0 mm 1 mps 753 mmHg 61%
04:00 +16°C° 0 mm 1 mps 753 mmHg 62%
05:00 +16°C° 0 mm 2 mps 753 mmHg 61%
06:00 +16°C° 0 mm 2 mps 754 mmHg 60%
07:00 +16°C° 0 mm 2 mps 754 mmHg 59%
08:00 +19°C° 0 mm 3 mps 754 mmHg 52%
09:00 +21°C° 0 mm 3 mps 754 mmHg 45%
10:00 +23°C° 0 mm 4 mps 754 mmHg 38%
11:00 +25°C° 0 mm 5 mps 753 mmHg 35%
12:00 +27°C° 0 mm 5 mps 752 mmHg 32%
13:00 +28°C° 0 mm 6 mps 752 mmHg 28%
14:00 +27°C° 0 mm 6 mps 751 mmHg 29%
15:00 +27°C° 0 mm 6 mps 751 mmHg 29%
16:00 +26°C° 0 mm 5 mps 751 mmHg 29%
17:00 +23°C° 0 mm 5 mps 752 mmHg 32%
18:00 +21°C° 0 mm 4 mps 752 mmHg 34%
19:00 +19°C° 0 mm 3 mps 753 mmHg 37%
20:00 +19°C° 0 mm 3 mps 753 mmHg 37%
21:00 +18°C° 0 mm 3 mps 753 mmHg 37%
22:00 +17°C° 0 mm 3 mps 754 mmHg 37%
23:00 +17°C° 0 mm 4 mps 754 mmHg 36%

20 August, Thursday

Time Temperature Precipitation Wind Pressure Humidity
00:00 +16°C° 0 mm 5 mps 754 mmHg 36%
01:00 +16°C° 0 mm 5 mps 754 mmHg 35%
02:00 +15°C° 0 mm 5 mps 754 mmHg 38%
03:00 +15°C° 0 mm 5 mps 754 mmHg 41%
04:00 +14°C° 0 mm 6 mps 755 mmHg 43%
05:00 +14°C° 0 mm 5 mps 755 mmHg 45%
06:00 +14°C° 0 mm 5 mps 756 mmHg 47%
07:00 +13°C° 0 mm 5 mps 756 mmHg 49%
08:00 +15°C° 0 mm 6 mps 756 mmHg 45%
09:00 +16°C° 0 mm 6 mps 756 mmHg 41%
10:00 +18°C° 0 mm 7 mps 757 mmHg 37%
11:00 +20°C° 0 mm 7 mps 756 mmHg 35%
12:00 +21°C° 0 mm 6 mps 755 mmHg 33%
13:00 +22°C° 0 mm 6 mps 755 mmHg 31%
14:00 +21°C° 0 mm 6 mps 755 mmHg 32%
15:00 +21°C° 0 mm 6 mps 755 mmHg 33%
16:00 +21°C° 0 mm 6 mps 755 mmHg 35%
17:00 +19°C° 0 mm 5 mps 755 mmHg 39%
18:00 +17°C° 0 mm 5 mps 756 mmHg 43%
19:00 +15°C° 0 mm 4 mps 757 mmHg 47%
20:00 +15°C° 0 mm 4 mps 757 mmHg 50%
21:00 +14°C° 0 mm 4 mps 758 mmHg 53%
22:00 +13°C° 0 mm 4 mps 758 mmHg 56%
23:00 +13°C° 0 mm 4 mps 758 mmHg 57%
Show more